ニート彗星

246P/NEAT (2013)

English version
Home page
Updated on May 15, 2012

---------------------------------------------------------------------

・ プロフィール

符号 246P/2010 V2
検出日 2010年11月2日、3日
検出光度 20.4等
検出者 E. Romas (Rostov-na-Donu, Russia), A. Novichonok (Kondopoga, Russia), D. Chestnov (Saransk, Russia), G. Hug (Scranton, KS, U.S.A.)

・ 写真集

・ 軌道要素

Epoch 2013 Jan. 28.0 TT = JDT 2456320.5
T 2013 Jan. 28.71058 TT                                 MPC
q   2.8797619            (2000.0)            P               Q
n   0.12191753     Peri.  176.18915     -0.25681366     +0.92800740
a   4.0280230      Node    78.78052     -0.89382642     -0.12184303
e   0.2850682      Incl.   15.97180     -0.36758817     -0.35207462
P   8.08
From 1837 observations 2003 Feb. 1-2012 May 3, mean residual 0".5.

・ 星図

・ 光度変化

        m1 = -17.5 + 5 logΔ + 50   log r(t - 200)  [    ,-460]  (              〜2011年10月26日)
        m1 =   7.8 + 5 logΔ + 10.0 log r           [-460, 960]  (2011年10月26日〜2015年 9月15日)
        m1 = -17.5 + 5 logΔ + 50   log r(t - 200)  [ 960,    ]  (2015年 9月15日〜              )

---------------------------------------------------------------------

軌道要素はM.P.E.C. 2012-J16に掲載されたものです。
星図はステラナビゲータ Ver.8 (アストロアーツ) で作成したものです。
光度グラフはComet for Windowsで作成したものです。

---------------------------------------------------------------------

Copyright(C) Seiichi Yoshida (comet@aerith.net). All rights reserved.